XE3ADC-4 Weather Reports


time (UTC)temp
C
wind
direction
speed
KPH
gust
KPH
rain 1hr
cm
rain 24hr
cm
rain mn
cm
humidity
%
barometer
mb
20260507081605 30 59 1.6 3.2 0.00 0.00 0.00 7 1009.4
20260507074605 30 81 6.4 11.3 0.00 0.00 0.00 7 1009.5
20260507071605 31 77 8.0 14.5 0.00 0.00 0.00 7 1009.7
20260507064605 32 200 1.6 4.8 0.00 0.00 0.00 7 1010.0
20260507061605 31 169 1.6 3.2 0.00 0.00 0.00 6 1009.8
20260507054605 32 197 1.6 3.2 0.00 0.00 0.00 7 1009.8
20260507051605 32 105 1.6 3.2 0.00 0.00 0.00 6 1009.7
20260507044602 32 106 3.2 6.4 0.00 0.00 0.00 6 1009.6
20260507041602 32 72 4.8 8.0 0.00 0.00 0.00 6 1009.4
20260507034602 32 27 3.2 4.8 0.00 0.00 0.00 6 1009.4
20260507031602 32 70 6.4 9.7 0.00 0.00 0.00 6 1009.3
20260507024602 33 39 4.8 9.7 0.00 0.00 0.00 6 1008.9
20260507021602 33 64 6.4 9.7 0.00 0.00 0.00 6 1008.6
20260507014602 33 68 4.8 9.7 0.00 0.00 0.00 6 1008.2
20260507011602 35 74 6.4 11.3 0.00 0.00 0.00 5 1007.9
20260507004603 35 49 6.4 8.0 0.00 0.00 0.00 5 1007.7
20260507001603 36 42 6.4 9.7 0.00 0.00 0.00 6 1007.4
20260506234603 37 45 6.4 9.7 0.00 0.00 0.00 6 1007.2
20260506231603 39 18 6.4 11.3 0.00 0.00 0.00 5 1007.2
20260506224603 40 19 9.7 12.9 0.00 0.00 0.00 5 1006.9
20260506221603 40 26 8.0 11.3 0.00 0.00 0.00 5 1007.1
20260506211603 41 51 8.0 12.9 0.00 0.00 0.00 5 1007.4
20260506204603 40 57 6.4 12.9 0.00 0.00 0.00 5 1007.8
20260506201603 40 72 8.0 11.3 0.00 0.00 0.00 5 1008.4
20260506194603 40 82 8.0 9.7 0.00 0.00 0.00 5 1008.8
20260506191603 39 53 9.7 12.9 0.00 0.00 0.00 5 1009.6
20260506184603 39 58 9.7 12.9 0.00 0.00 0.00 5 1010.2
20260506181603 38 26 6.4 9.7 0.00 0.00 0.00 6 1010.4
20260506174603 38 18 6.4 9.7 0.00 0.00 0.00 6 1011.0
20260506171603 37 34 4.8 8.0 0.00 0.00 0.00 6 1011.2
20260506164603 36 69 3.2 8.0 0.00 0.00 0.00 6 1011.4
20260506161603 36 29 4.8 8.0 0.00 0.00 0.00 6 1011.7
20260506154603 37 89 4.8 8.0 0.00 0.00 0.00 6 1011.9
20260506151603 34 51 4.8 8.0 0.00 0.00 0.00 6 1011.9
20260506144603 32 75 8.0 12.9 0.00 0.00 0.00 7 1012.0
20260506141603 30 81 9.7 12.9 0.00 0.00 0.00 7 1012.0
20260506134603 30 83 8.0 12.9 0.00 0.00 0.00 7 1011.9
20260506131603 28 91 8.0 12.9 0.00 0.00 0.00 8 1012.0
20260506124603 28 63 6.4 9.7 0.00 0.00 0.00 8 1011.8
20260506121603 27 83 4.8 6.4 0.00 0.00 0.00 8 1011.5
20260506114603 27 59 3.2 6.4 0.00 0.00 0.00 8 1011.3
20260506111602 27 61 4.8 9.7 0.00 0.00 0.00 8 1011.1
20260506104602 27 128 1.6 3.2 0.00 0.00 0.00 8 1010.8
20260506101602 27 91 4.8 8.0 0.00 0.00 0.00 8 1010.6
20260506094602 28 340 3.2 4.8 0.00 0.00 0.00 8 1010.4
20260506091602 28 28 3.2 4.8 0.00 0.00 0.00 8 1010.2
20260506084602 28 95 3.2 6.4 0.00 0.00 0.00 8 1010.1